Weather observations for the past three days for
Oxford, University-Oxford Airport
Imperial (Metric)
Date Time (cdt) Wind (mph) Vis. (mi.) Weather Sky Cond. Temperature (ºF) Relative Humidity Wind Chill (°F) Heat Index (°F) Pressure Precipitation (in)
Air Dwpt 6 hour altimeter (in) sea level (mb) 1 hr 3 hr 6 hr
Max. Min.
15 06:55 Calm 10.00 Fair CLR 73.4 71.6 94% 30.08 0.0
15 06:35 Calm 10.00 Fair CLR 73.4 71.6 94% 30.08 0.0
15 06:15 SE 3 10.00 Fair CLR 71.6 71.6 100% 30.07 0.0
15 05:55 Calm 10.00 Fair CLR 71.6 71.6 100% 30.08 0.0
15 05:35 Calm 10.00 Fair CLR 71.6 71.6 100% 30.07 0.0
15 05:15 Calm 10.00 Fair CLR 71.6 71.6 100% 30.06 0.0
15 04:55 Calm 10.00 Fair CLR 71.6 71.6 100% 30.06 0.0
15 04:35 Calm 10.00 Fair CLR 71.6 71.6 100% 30.06 0.0
15 04:15 Calm 10.00 Fair CLR 71.6 71.6 100% 30.05 0.0
15 03:55 Calm 10.00 Fair CLR 71.6 71.6 100% 30.05 0.0
15 03:35 Calm 10.00 Fair CLR 71.6 71.6 100% 30.05 0.0
15 03:15 Calm 10.00 Fair CLR 73.4 71.6 94% 30.06 0.0
15 02:55 Calm 10.00 Fair CLR 73.4 71.6 94% 30.05 0.0
15 02:35 Calm 10.00 Fair CLR 75.2 71.6 89% 75 30.06 0.0
15 02:15 Calm 10.00 Fair CLR 75.2 71.6 89% 75 30.06 0.0
15 01:55 Vrbl 3 10.00 Fair CLR 77 71.6 83% 78 30.07 0.0
15 01:35 Vrbl 5 10.00 Fair CLR 75.2 71.6 89% 75 30.07 0.0
15 01:15 Vrbl 3 10.00 Fair CLR 75.2 71.6 89% 75 30.07 0.0
15 00:55 Calm 10.00 Fair CLR 75.2 71.6 89% 75 30.07 0.0
15 00:35 Calm 10.00 Fair CLR 75.2 71.6 89% 75 30.08 0.0
15 00:15 SW 3 10.00 Fair CLR 77 71.6 83% 78 30.09 0.0
14 23:55 SW 3 10.00 Fair CLR 77 71.6 83% 78 30.08 0.0
14 23:35 Vrbl 5 10.00 Fair CLR 77 71.6 83% 78 30.08 0.0
14 23:15 S 3 10.00 Fair CLR 77 71.6 83% 78 30.08 0.0
14 22:55 SW 5 10.00 Fair CLR 78.8 71.6 79% 82 30.08 0.0
14 22:35 S 7 10.00 Fair CLR 77 73.4 89% 78 30.08 0.0
14 22:15 SE 7 10.00 Fair CLR 77 73.4 89% 78 30.08 0.0
14 21:55 SE 7 10.00 Fair CLR 77 73.4 89% 78 30.07 0.0
14 21:35 S 5 10.00 Fair CLR 77 73.4 89% 78 30.07 0.0
14 21:15 Calm 10.00 Fair CLR 77 73.4 89% 78 30.08 0.0
14 20:55 Calm 10.00 Fair CLR 77 73.4 89% 78 30.08 0.0
14 20:35 Calm 10.00 Fair CLR 78.8 73.4 84% 82 30.08 0.0
14 20:15 S 3 10.00 Fair CLR 78.8 73.4 84% 82 30.07 0.0
14 19:55 S 3 10.00 Fair CLR 82.4 71.6 70% 87 30.08 0.0
14 19:35 SW 5 10.00 Fair CLR 82.4 71.6 70% 87 30.08 0.0
14 19:15 Calm 10.00 Fair CLR 84.2 71.6 66% 90 30.07 0.0
14 18:55 S 6 10.00 Fair CLR 84.2 71.6 66% 90 30.08 0.0
14 18:35 SW 3 10.00 Fair CLR 84.2 71.6 66% 90 30.08 0.0
14 18:15 Calm 10.00 Fair CLR 84.2 71.6 66% 90 30.08 0.0
14 17:55 Calm 10.00 Fair CLR 82.4 71.6 70% 87 30.08 0.0
14 17:35 SW 5 10.00 Fair CLR 78.8 73.4 84% 82 30.08 0.0
14 17:15 Calm 9.00 Fair CLR 77 73.4 89% 78 30.08 0.0
14 16:55 Vrbl 3 4.00 Fair with Haze CLR 77 71.6 83% 78 30.09 0.0
14 16:35 SW 9 G 17 10.00 Fair CLR 78.8 69.8 74% 81 30.1 0.0
14 16:15 SW 10 10.00 Fair CLR 80.6 69.8 70% 84 30.11 0.0
14 15:55 W 7 G 14 10.00 Fair CLR 82.4 69.8 66% 86 30.11 0.0
14 15:35 Vrbl 7 10.00 Thunderstorm CLR 82.4 69.8 66% 86 30.11 0.0
14 15:15 Vrbl 8 G 18 10.00 Thunderstorm in Vicinity FEW055 FEW065 82.4 69.8 66% 86 30.1 0.0
14 14:55 SW 12 G 20 10.00 Thunderstorm in Vicinity CLR 87.8 69.8 55% 93 30.11 0.0
14 14:35 Calm 10.00 Thunderstorm in Vicinity CLR 87.8 68 52% 91 30.1 0.0
14 14:15 SW 9 9.00 Fair CLR 89.6 69.8 52% 95 30.1 0.0
14 13:55 SW 6 10.00 Partly Cloudy SCT055 SCT065 91.4 68 46% 96 30.11 0.0
14 13:35 W 6 10.00 Mostly Cloudy BKN055 BKN070 91.4 68 46% 96 30.12 0.0
14 13:15 Vrbl 6 10.00 A Few Clouds FEW060 93.2 66.2 41% 96 30.13 0.0
14 12:55 Vrbl 5 10.00 Partly Cloudy FEW050 SCT065 89.6 66.2 46% 92 30.14 0.0
14 12:35 Vrbl 6 10.00 Partly Cloudy SCT050 SCT060 89.6 66.2 46% 92 30.15 0.0
14 12:15 Calm 10.00 A Few Clouds FEW049 91.4 68 46% 96 30.16 0.0
14 11:55 Calm 10.00 Fair CLR 91.4 68 46% 96 30.16 0.0
14 11:35 Vrbl 5 10.00 Fair CLR 89.6 68 49% 93 30.16 0.0
14 11:15 W 5 10.00 Fair CLR 89.6 69.8 52% 95 30.17 0.0
14 10:55 SW 5 10.00 Fair CLR 86 71.6 62% 92 30.17 0.0
14 10:35 SW 5 10.00 Fair CLR 86 71.6 62% 92 30.17 0.0
14 10:15 SW 5 10.00 Fair CLR 86 71.6 62% 92 30.17 0.0
14 09:55 Calm 10.00 Fair CLR 84.2 71.6 66% 90 30.17 0.0
14 09:35 Calm 10.00 Fair CLR 84.2 71.6 66% 90 30.17 0.0
14 09:15 NW 5 10.00 Fair CLR 82.4 71.6 70% 87 30.17 0.0
14 08:55 NW 5 10.00 Fair CLR 84.2 69.8 62% 88 30.17 0.0
14 08:35 NW 7 10.00 Fair CLR 82.4 71.6 70% 87 30.17 0.0
14 08:15 W 5 10.00 Fair CLR 80.6 71.6 74% 85 30.17 0.0
14 07:55 Calm 10.00 Fair CLR 77 71.6 83% 78 30.17 0.0
14 07:35 Calm 10.00 Fair CLR 77 73.4 89% 78 30.17 0.0
14 07:15 Calm 9.00 Fair CLR 75.2 73.4 94% 74 30.16 0.0
14 06:55 Calm 10.00 Fair CLR 75.2 73.4 94% 74 30.16 0.0
14 06:35 Calm 9.00 Fair CLR 73.4 73.4 100% 30.16 0.0
14 06:15 Calm 10.00 Partly Cloudy SCT075 73.4 73.4 100% 30.16 0.0
14 05:55 Calm 10.00 Partly Cloudy SCT070 73.4 71.6 94% 30.15 0.0
14 05:35 Calm 10.00 Fair CLR 73.4 73.4 100% 30.15 0.0
14 05:15 Calm 10.00 Fair CLR 73.4 73.4 100% 30.14 0.0
14 04:55 Calm 10.00 Fair CLR 73.4 73.4 100% 30.14 0.0
14 04:35 Calm 10.00 Partly Cloudy SCT075 73.4 71.6 94% 30.13 0.0
14 04:15 Calm 10.00 Mostly Cloudy BKN075 73.4 73.4 100% 30.13 0.0
14 03:55 Calm 10.00 A Few Clouds FEW075 73.4 73.4 100% 30.13 0.0
14 03:35 Calm 10.00 Fair CLR 73.4 73.4 100% 30.13 0.0
14 03:15 Calm 10.00 Fair CLR 73.4 73.4 100% 30.13 0.0
14 02:55 Calm 10.00 Fair CLR 73.4 73.4 100% 30.13 0.0
14 02:35 Calm 10.00 Fair CLR 73.4 73.4 100% 30.13 0.0
14 02:15 Calm 10.00 Fair CLR 73.4 73.4 100% 30.14 0.0
14 01:55 Calm 10.00 Fair CLR 73.4 73.4 100% 30.14 0.0
14 01:35 Calm 10.00 Fair CLR 75.2 71.6 89% 75 30.15 0.0
14 01:15 Calm 10.00 Fair CLR 75.2 71.6 89% 75 30.15 0.0
14 00:55 Calm 10.00 Fair CLR 75.2 71.6 89% 75 30.16 0.0
14 00:35 Calm 10.00 Fair CLR 75.2 71.6 89% 75 30.16 0.0
14 00:15 Calm 10.00 Fair CLR 75.2 71.6 89% 75 30.16 0.0
13 23:55 Calm 10.00 Fair CLR 75.2 71.6 89% 75 30.16 0.0
13 23:35 Calm 10.00 Fair CLR 77 71.6 83% 78 30.16 0.0
13 23:15 Calm 10.00 Fair CLR 77 71.6 83% 78 30.16 0.0
13 22:55 Calm 10.00 Fair CLR 78.8 71.6 79% 82 30.16 0.0
13 22:35 Calm 10.00 Fair CLR 78.8 71.6 79% 82 30.17 0.0
13 22:15 Calm 10.00 Fair CLR 78.8 71.6 79% 82 30.16 0.0
13 21:55 Calm 10.00 Fair CLR 80.6 71.6 74% 85 30.16 0.0
13 21:35 Calm 10.00 Fair CLR 80.6 71.6 74% 85 30.16 0.0
13 21:15 Calm 10.00 Fair CLR 82.4 71.6 70% 87 30.15 0.0
13 20:55 Calm 10.00 Fair CLR 82.4 69.8 66% 86 30.15 0.0
13 20:35 Calm 10.00 Fair CLR 84.2 69.8 62% 88 30.15 0.0
13 20:15 Calm 10.00 A Few Clouds FEW070 86 69.8 59% 91 30.15 0.0
13 19:55 Calm 10.00 Mostly Cloudy BKN070 BKN080 BKN120 87.8 69.8 55% 93 30.14 0.0
13 19:35 N 6 10.00 Mostly Cloudy BKN070 BKN085 BKN120 89.6 69.8 52% 95 30.14 0.0
13 19:15 N 8 10.00 Overcast BKN070 OVC080 89.6 68 49% 93 30.14 0.0
13 18:55 NW 8 10.00 Mostly Cloudy BKN070 BKN080 91.4 64.4 41% 93 30.13 0.0
13 18:35 NW 8 10.00 Partly Cloudy SCT070 93.2 64.4 39% 95 30.13 0.0
13 18:15 NW 8 10.00 Partly Cloudy SCT070 95 64.4 36% 97 30.13 0.0
13 17:55 W 8 10.00 A Few Clouds FEW070 95 62.6 34% 96 30.12 0.0
13 17:35 NW 6 10.00 Partly Cloudy SCT070 95 62.6 34% 96 30.12 0.0
13 17:15 NW 5 G 13 10.00 A Few Clouds FEW070 95 62.6 34% 96 30.12 0.0
13 16:55 W 7 10.00 Fair CLR 96.8 62.6 32% 98 30.13 0.0
13 16:35 Vrbl 5 10.00 A Few Clouds FEW070 FEW080 95 62.6 34% 96 30.14 0.0
13 16:15 Vrbl 5 G 12 10.00 A Few Clouds FEW070 FEW080 96.8 62.6 32% 98 30.14 0.0
13 15:55 N 6 G 12 10.00 Fair CLR 96.8 62.6 32% 98 30.15 0.0
13 15:35 NW 8 10.00 Fair CLR 96.8 62.6 32% 98 30.15 0.0
13 15:15 NW 6 10.00 Fair CLR 93.2 62.6 36% 94 30.16 0.0
13 14:55 NW 8 10.00 Fair CLR 93.2 62.6 36% 94 30.17 0.0
13 14:35 Vrbl 6 10.00 Fair CLR 93.2 62.6 36% 94 30.18 0.0
13 14:15 Calm 10.00 Fair CLR 95 64.4 36% 97 30.19 0.0
13 13:55 Vrbl 7 G 13 10.00 Partly Cloudy SCT060 SCT075 95 66.2 39% 98 30.19 0.0
13 13:35 Vrbl 7 10.00 A Few Clouds FEW060 FEW075 93.2 64.4 39% 95 30.2 0.0
13 13:15 Vrbl 6 G 12 10.00 Fair CLR 93.2 66.2 41% 96 30.2 0.0
13 12:55 N 9 10.00 Fair CLR 93.2 66.2 41% 96 30.21 0.0
13 12:35 N 7 G 13 10.00 A Few Clouds FEW060 91.4 64.4 41% 93 30.21 0.0
13 12:15 NW 7 10.00 Partly Cloudy BKN055 SCT070 91.4 64.4 41% 93 30.21 0.0
13 11:55 W 7 10.00 Partly Cloudy SCT055 SCT070 93.2 66.2 41% 96 30.21 0.0
13 11:35 Vrbl 3 10.00 A Few Clouds FEW055 91.4 66.2 44% 94 30.21 0.0
13 11:15 SE 5 10.00 A Few Clouds FEW055 91.4 66.2 44% 94 30.21 0.0
13 10:55 Vrbl 5 10.00 Fair CLR 89.6 66.2 46% 92 30.21 0.0
13 10:35 Vrbl 3 10.00 Fair CLR 89.6 66.2 46% 92 30.21 0.0
13 10:15 Vrbl 3 10.00 Fair CLR 89.6 68 49% 93 30.21 0.0
13 09:55 SE 5 10.00 Fair CLR 87.8 68 52% 91 30.21 0.0
13 09:35 Vrbl 5 10.00 Fair CLR 87.8 69.8 55% 93 30.21 0.0
13 09:15 E 5 10.00 Fair CLR 86 69.8 59% 91 30.21 0.0
13 08:55 Calm 10.00 Fair CLR 84.2 69.8 62% 88 30.21 0.0
13 08:35 Calm 10.00 Fair CLR 82.4 71.6 70% 87 30.21 0.0
13 08:15 Calm 10.00 Fair CLR 78.8 71.6 79% 82 30.21 0.0
13 07:55 Calm 10.00 Fair CLR 77 69.8 79% 79 30.21 0.0
13 07:35 Calm 10.00 Fair CLR 73.4 69.8 89% 30.21 0.0
13 07:15 Calm 10.00 Fair CLR 71.6 69.8 94% 30.2 0.0
13 06:55 Calm 10.00 Fair CLR 69.8 69.8 100% 30.2 0.0
13 06:35 Calm 9.00 Fair CLR 68 68 100% 30.19 0.0
13 06:15 Calm 9.00 Fair CLR 68 68 100% 30.18 0.0
13 05:55 Calm 9.00 Fair CLR 68 68 100% 30.18 0.0
13 05:35 Calm 10.00 Fair CLR 68 68 100% 30.17 0.0
13 05:15 Calm 10.00 Fair CLR 68 68 100% 30.17 0.0
13 04:55 Calm 10.00 Fair CLR 68 68 100% 30.16 0.0
13 04:35 Calm 10.00 Fair CLR 69.8 69.8 100% 30.16 0.0
13 04:15 Calm 10.00 Fair CLR 69.8 69.8 100% 30.16 0.0
13 03:55 Calm 10.00 Fair CLR 69.8 69.8 100% 30.15 0.0
13 03:35 Calm 10.00 Fair CLR 69.8 69.8 100% 30.14 0.0
13 03:15 Calm 10.00 Fair CLR 71.6 69.8 94% 30.14 0.0
13 02:55 Calm 10.00 Fair CLR 71.6 69.8 94% 30.14 0.0
13 02:35 Calm 10.00 Fair CLR 71.6 69.8 94% 30.13 0.0
13 02:15 Calm 10.00 Fair CLR 71.6 69.8 94% 30.14 0.0
13 01:55 Calm 10.00 Fair CLR 71.6 69.8 94% 30.14 0.0
13 01:35 Calm 10.00 Fair CLR 71.6 69.8 94% 30.14 0.0
13 01:15 Calm 10.00 Fair CLR 73.4 69.8 89% 30.15 0.0
13 00:55 Calm 10.00 Fair CLR 73.4 69.8 89% 30.15 0.0
13 00:35 Calm 10.00 Fair CLR 73.4 69.8 89% 30.15 0.0
13 00:15 Calm 10.00 Fair CLR 75.2 69.8 83% 75 30.15 0.0
12 23:55 Calm 10.00 Fair CLR 75.2 69.8 83% 75 30.15 0.0
12 23:35 Calm 10.00 Fair CLR 75.2 69.8 83% 75 30.15 0.0
12 23:15 Calm 10.00 Fair CLR 77 68 74% 79 30.15 0.0
12 22:55 NE 5 10.00 Fair CLR 77 68 74% 79 30.15 0.0
12 22:35 N 5 10.00 Fair CLR 77 69.8 79% 79 30.14 0.0
12 22:15 Calm 10.00 Fair CLR 78.8 69.8 74% 81 30.14 0.0
12 21:55 Calm 10.00 Fair CLR 78.8 68 70% 81 30.13 0.0
12 21:35 NE 5 10.00 Fair CLR 80.6 68 66% 83 30.13 0.0
12 21:15 NE 3 10.00 Fair CLR 80.6 69.8 70% 84 30.12 0.0
12 20:55 NE 3 10.00 Fair CLR 82.4 68 62% 85 30.11 0.0
12 20:35 E 5 10.00 Fair CLR 82.4 68 62% 85 30.11 0.0
12 20:15 NE 6 10.00 Fair CLR 84.2 68 58% 87 30.11 0.0
12 19:55 NE 5 10.00 Fair CLR 86 68 55% 89 30.11 0.0
12 19:35 NE 5 10.00 Fair CLR 87.8 68 52% 91 30.1 0.0
12 19:15 Calm 10.00 Fair CLR 87.8 68 52% 91 30.1 0.0
12 18:55 N 6 10.00 Fair CLR 89.6 66.2 46% 92 30.09 0.0
12 18:35 NE 8 10.00 A Few Clouds FEW060 89.6 66.2 46% 92 30.09 0.0
12 18:15 N 9 10.00 A Few Clouds FEW060 91.4 66.2 44% 94 30.09 0.0
12 17:55 NW 10 10.00 Partly Cloudy SCT060 91.4 64.4 41% 93 30.08 0.0
12 17:35 N 8 10.00 A Few Clouds FEW060 91.4 66.2 44% 94 30.08 0.0
12 17:15 Vrbl 6 10.00 Mostly Cloudy BKN060 93.2 64.4 39% 95 30.08 0.0
12 16:55 NW 6 G 12 10.00 Mostly Cloudy BKN060 91.4 64.4 41% 93 30.09 0.0
12 16:35 NW 7 10.00 A Few Clouds FEW065 93.2 64.4 39% 95 30.09 0.0
12 16:15 Vrbl 6 10.00 Partly Cloudy SCT065 SCT085 91.4 64.4 41% 93 30.09 0.0
12 15:55 NW 6 10.00 Overcast OVC065 91.4 64.4 41% 93 30.09 0.0
12 15:35 NW 8 10.00 Partly Cloudy SCT060 95 64.4 36% 97 30.09 0.0
12 15:15 N 5 G 12 10.00 A Few Clouds FEW060 91.4 64.4 41% 93 30.09 0.0
12 14:55 Calm 10.00 A Few Clouds FEW060 FEW070 93.2 64.4 39% 95 30.1 0.0
12 14:35 Vrbl 7 G 14 10.00 Fair CLR 93.2 66.2 41% 96 30.11 0.0
12 14:15 Vrbl 5 G 13 10.00 Fair CLR 91.4 66.2 44% 94 30.11 0.0
12 13:55 NW 13 10.00 Fair CLR 91.4 68 46% 96 30.12 0.0
12 13:35 N 8 10.00 A Few Clouds FEW065 93.2 64.4 39% 95 30.12 0.0
12 13:15 NW 9 10.00 A Few Clouds FEW065 93.2 62.6 36% 94 30.12 0.0
12 12:55 Vrbl 5 10.00 Partly Cloudy SCT060 89.6 62.6 41% 90 30.13 0.0
12 12:35 SW 3 9.00 A Few Clouds FEW060 89.6 62.6 41% 90 30.14 0.0
12 12:15 Vrbl 5 10.00 Fair CLR 91.4 64.4 41% 93 30.14 0.0
12 11:55 Calm 10.00 Fair CLR 89.6 64.4 43% 91 30.14 0.0
12 11:35 Calm 10.00 Fair CLR 89.6 64.4 43% 91 30.14 0.0
12 11:15 Vrbl 3 10.00 Fair CLR 87.8 64.4 46% 89 30.14 0.0
12 10:55 Vrbl 6 10.00 Fair CLR 87.8 64.4 46% 89 30.15 0.0
12 10:35 Vrbl 3 9.00 Fair CLR 87.8 66.2 49% 90 30.15 0.0
12 10:15 Vrbl 5 10.00 Fair CLR 87.8 66.2 49% 90 30.15 0.0
12 09:55 Vrbl 3 10.00 Fair CLR 86 66.2 52% 88 30.15 0.0
12 09:35 Vrbl 3 9.00 Fair CLR 86 68 55% 89 30.15 0.0
12 08:55 Calm 10.00 Fair CLR 82.4 69.8 66% 86 30.14 0.0
12 08:35 Calm 10.00 Fair CLR 78.8 69.8 74% 81 30.14 0.0
12 08:15 Calm 10.00 Fair CLR 77 68 74% 79 30.14 0.0
12 07:55 Calm 9.00 Fair CLR 73.4 68 83% 30.13 0.0
12 07:35 Calm 10.00 Fair CLR 71.6 68 88% 30.13 0.0
Date Time (cdt) Wind (mph) Vis. (mi.) Weather Sky Cond. Air Dwpt Max. Min. Relative Humidity Wind Chill (°F) Heat Index (°F) altimeter (in) sea level (mb) 1 hr 3 hr 6 hr
6 hour
Temperature (ºF) Pressure Precipitation (in)